Weather in Aalst

Belgium     50°56′17″N   4°01′34″E
temp.,
°C
wind,
m/s
gust,
m/s
humid.,
%
clouds,
%
prec.,
mm/h
press.,
hPa
HPBL,
m
20 september, mon
mon2023:00+17se3479100 0.5 101588
02:00+14ese228633 0.6 101620
05:00+13ese238823 0.3 101729
08:00+12e34879 0.3 101880
11:00+16e4569100 0.0 1019409
14:00+17ene4461100 0.0 1020525
17:00+18nne455252 0.0 1021956
20:00+14nne46676 0.0 102389
21 september, tue
tue2123:00+12ne35730 0.0 102584
02:00+10ne33740 0.0 102642
05:00+9nne337674 0.0 102741
08:00+8ne34765 0.0 102987
11:00+14ne455446 0.0 1030655
14:00+18ne4443100 0.0 10291240
17:00+19ne34425 0.0 10291287
20:00+13nne3465100 0.0 102951
22 september, wed
wed2223:00+11ene227563 0.0 103013
02:00+10ese228095 0.0 102910
05:00+9se1182100 0.0 102810
08:00+9se118270 0.0 102810
11:00+16se22565 0.0 1028432
14:00+20sse22435 0.0 1026941
17:00+21s22400 0.0 10241115
20:00+15ssw22604 0.0 102414
23 september, thu
thu2323:00+12sw12725 0.0 102311
02:00+11sw33765 0.0 102229
05:00+10ssw46794 0.0 101984
08:00+10sw488299 0.0 1018147
11:00+17sw6105552 0.0 1017610
14:00+21wsw8105095 0.0 10151285
17:00+19w71161100 0.0 10141146
20:00+16w61080100 0.1 1014790
24 september, fri
fri2423:00+14nw51074100 0.1 1016596
02:00+10nw229075 0.1 101730
05:00+8w228736 0.0 101718
08:00+7wsw2287100 0.0 101724
11:00+13sw355473 0.0 1017646
14:00+18wsw56325 0.0 10151199
17:00+19wsw67300 0.0 10121287
20:00+14wsw59560 0.0 1012244